Individual YR Submissions

/Individual YR Submissions

Individual YR Submissions



Showing results for Robert Baldino
Year Rounder submissions are verified and standings are posted monthly. Questions? Contact the Year Rounder team.
2019 Submissions
(Rides that have a "Y" in the standings column are included in the current standings. Verified rides not in the current standings will be included next time.)

Standings were last generated on
2020-03-09 13:00:55.
# event date event name distance (unit) elevation (unit) ride type bike type verified standings
12019-01-03Amador City to Ione96.04 miles2153.7 feetpersonalstandard2019-01-06YY
22019-01-08Galt Lodi Stockton Loop91.60 miles888.6 feetpersonalstandard2019-01-09YY
32019-01-11Jackson to Davis (via Winters)116.32 miles1380.3 feetpersonalstandard2019-02-14YY
42019-01-13Davis to Jackson(home)96.37 miles3811.9 feetpersonalstandard2019-02-14YY
52019-01-17Big Lodi Loop92.86 miles4294.8 feetpersonalstandard2019-02-14YY
62019-01-20Galt Lodi Stockton Loop91.60 miles888.6 feetpersonalstandard2019-02-14YY
72019-01-24Davis to Guinda( Nichols Park) and return103.14 miles1207.2 feetpersonalstandard2019-02-14YY
82019-01-27Jackson to Folsom (via Comanche Lake)137.02 miles8156.3 feetpersonalstandard2019-02-14YY
92019-02-02Pace Bend 12 Hr. Ultra99.36 miles5600 feetorganizedstandard2019-02-15YY
102019-02-24Big Lodi Loop92.86 miles4294.8 feetpersonalstandard2019-02-26YY
112019-03-01Davis to Guinda( Nichols Park) and return103.14 miles1207.2 feetpersonalstandard2019-03-06YY
122019-03-03Big Lodi Loop92.86 miles4294.8 feetpersonalstandard2019-03-06YY
132019-03-06Big Jackson Loop97.28 miles8574 feetpersonalstandard2019-03-13YY
142019-03-09Big Lodi Loop92.86 miles4294.8 feetpersonalstandard2019-03-13YY
152019-03-12Jackson to Davis (via Winters)116.32 miles1380.3 feetpersonalstandard2019-03-14YY
162019-03-16Big Lodi Loop92.86 miles4294.8 feetpersonalstandard2019-03-21YY
172019-03-19Galt Lodi Stockton Loop91.60 miles888.6 feetpersonalstandard2019-03-21YY
182019-03-23Jackson to Davis (via Winters)116.32 miles1380 feetpersonalstandard2019-03-27YY
192019-03-24Jackson to Davis (via Winters)116.32 miles1380.3 feetpersonalstandard2019-04-05YY
202019-03-26Davis to Jackson(home)96.37 miles3811.9 feetpersonalstandard2019-04-05YY
212019-03-31Jackson to Davis (via Winters)136.12 miles2546 feetpersonalstandard2019-04-13YY
222019-04-06Big Lodi Loop92.86 miles4294.8 feetpersonalstandard2019-04-13YY
232019-04-12Santa Cruz to Carmel142.12 miles4324.2 feetpersonalstandard2019-04-17YY
242019-04-20Jackson to Folsom137.02 miles8156.3 feetpersonalstandard2019-04-30YY
252019-04-25Big Lodi Loop92.86 miles4294.8 feetpersonalstandard2019-05-01YY
262019-04-30Santa Cruz to Carmel142.12 miles4324.2 feetpersonalstandard2019-05-12YY
272019-05-05Santa Cruz (UCSC) to Tres Pinos/Return118.55 miles4579.12 feetpersonalstandard2019-05-12YY
282019-05-09Monterey,Watsonville Gonzalez Loop122.45 miles4044 feetpersonalstandard2019-05-12YY
292019-05-12Davis to Jackson(home)96.37 miles3811.9 feetpersonalstandard2019-05-25YY
302019-05-18Big Lodi Loop92.86 miles4294.8 feetpersonalstandard2019-05-25YY
312019-05-25Jackson to Davis (via Winters)116.32 miles1380.3 feetpersonalstandard2019-05-25YY
322019-05-31Jackson to Folsom137.02 miles8156.3 feetpersonalstandard2019-06-10YY
332019-06-04Davis to Guinda (Nichols Park) return103.14 miles1207.2 feetpersonalstandard2019-06-10YY
342019-06-09Big Lodi Loop92.86 miles4294.8 feetpersonalstandard2019-06-10YY
352019-06-20Green Valley/Canyon91.01 miles6023 feetpersonalstandard2019-06-27YY
362019-06-26Green Valley/Madera Canyon91.01 miles6023 feetpersonalstandard2019-06-27YY
372019-07-12Green Valley Rio Rico Out and back102.68 miles3110 feetpersonalstandard2019-07-25YY
382019-07-18Green Valley Rio Rico Out and back102.68 miles3110 feetpersonalstandard2019-07-25YY
392019-07-23Green Valley Rio Rico Out and back95.00 miles3110 feetpersonalstandard2019-07-30YY
402019-07-27Sahuarita Tucson Loop95.50 miles1985 feetpersonalstandard2019-07-30YY
412019-07-30Green Valley (Home) Catalina Hills Loop101.49 miles2436 feetpersonalstandard2019-07-30YY
422019-08-03Sauhaurita Tucson Loop101.50 miles1985 feetpersonalstandard2019-08-10YY
432019-08-07Sahuarita Tucson Loop95.50 miles1985 feetpersonalstandard2019-08-10YY
442019-08-29Sahuarita Tucson Loop95.50 miles1985 feetpersonalstandard2019-09-10YY
452019-09-01Green Valley Rio Rica (out and back)102.68 miles3110 feetpersonalstandard2019-09-10YY
462019-09-05Catalina Hills Loop102.10 miles2901 feetpersonalstandard2019-09-13YY
472019-09-08Green Valley Rio Rica (out and back)102.68 miles3110.27 feetpersonalstandard2019-09-13YY
482019-09-11Catalina Hills Loop102.10 miles2901 feetpersonalstandard2019-09-19YY
492019-09-14Green Valley Rio Rica (out and back)102.68 miles3110 feetpersonalstandard2019-09-19YY
502019-09-18Sauharita Tucson Loop95.50 miles1985 feetpersonalstandard2019-09-19YY
512019-09-22Green Valley Rio Rica (out and back)102.68 miles3110.27 feetpersonalstandard2019-09-24YY
522019-09-28Catalina Hills Loop102.10 miles2901 feetpersonalstandard2019-10-19YY
532019-10-03Green Valley Rio Rica (out and back)102.68 miles3110 feetpersonalstandard2019-10-19YY
542019-10-05NCOM 208 - Partial101.60 miles3220 feetpersonalstandard2019-10-20YY
552019-10-10Sauharita Tucson Loop95.50 miles1885 feetpersonalstandard2019-10-20YY
562019-10-15Catalina Hills Loop102.68 miles2901 feetpersonalstandard2019-10-22YY
572019-10-18Green Valley Rio Rica (out and back)102.31 miles3110 feetpersonalstandard2019-10-22YY
582019-10-22Three Point Aravaca Loop (via Amado)120.93 miles2445 feetpersonalstandard2019-10-26YY
592019-10-26Sauharita Tucson Loop95.50 miles1985 feetpersonalstandard2019-11-16YY
602019-11-02World 12 Hr. TT Championships140.40 miles2742.7 feetorganizedstandard2019-11-16YY
612019-11-11Green Valley Rio Rica (out and back)102.68 miles3110 feetpersonalstandard2019-11-16YY
622019-11-16Catalina Hills Loop102.10 miles2901 feetpersonalstandard2019-11-16YY
632019-11-16Three Point Aravaca Loop (via Amado)120.93 miles2445 feetpersonalstandard2019-11-16YY